,,,PA_Meas_PMT16A,,PR_Meas_QMR101_102,,RH_Meas_QMH101,,SR_Meas_QMS101,,TA_Meas_QMH101,,GenWind,,GenWind,
date,time,status,PA,status,PR,status,RH,status,SR,status,TA,status,DirAvg,status,SpdAvg,
2014-07-06, 00:00:04,VALID,1009.15,VALID,0,INVALID,109.666,VALID,0,VALID,24.8049,VALID,336,VALID,0,
2014-07-06, 00:01:04,VALID,1009.15,VALID,0,INVALID,109.674,VALID,0,VALID,24.7854,VALID,336,VALID,0,
2014-07-06, 00:02:04,VALID,1009.13,VALID,0,INVALID,109.681,VALID,0,VALID,24.7854,VALID,336,VALID,0,
2014-07-06, 00:03:04,VALID,1009.15,VALID,0,INVALID,109.78,VALID,0,VALID,24.7854,VALID,336,VALID,0,
2014-07-06, 00:04:04,VALID,1009.2,VALID,0,INVALID,109.796,VALID,0,VALID,24.7659,VALID,336,VALID,0,
2014-07-06, 00:05:04,VALID,1009.19,VALID,0,INVALID,109.788,VALID,0,VALID,24.7659,VALID,336,VALID,0,
2014-07-06, 00:06:04,VALID,1009.22,VALID,0,INVALID,109.788,VALID,0.112112,VALID,24.7464,VALID,336,VALID,0,
2014-07-06, 00:07:04,VALID,1009.22,VALID,0,INVALID,109.765,VALID,0,VALID,24.7074,VALID,336,VALID,0,
2014-07-06, 00:08:04,VALID,1009.28,VALID,0,INVALID,109.803,VALID,0,VALID,24.7074,VALID,336,VALID,0,
2014-07-06, 00:09:04,VALID,1009.27,VALID,0,INVALID,109.811,VALID,0,VALID,24.7074,VALID,336,VALID,0,
2014-07-06, 00:10:04,VALID,1009.29,VALID,0,INVALID,109.811,VALID,0,VALID,24.6879,VALID,336,VALID,0,
2014-07-06, 00:11:04,VALID,1009.25,VALID,0,INVALID,109.849,VALID,0,VALID,24.6684,VALID,336,VALID,0,
2014-07-06, 00:12:04,VALID,1009.27,VALID,0,INVALID,109.887,VALID,0,VALID,24.6684,VALID,336,VALID,0,
2014-07-06, 00:13:04,VALID,1009.26,VALID,0,INVALID,109.933,VALID,0,VALID,24.6489,VALID,336,VALID,0,
2014-07-06, 00:14:04,VALID,1009.25,VALID,0,INVALID,109.948,VALID,0,VALID,24.6471,VALID,336,VALID,0,
2014-07-06, 00:15:04,VALID,1009.23,VALID,0,INVALID,110.009,VALID,0,VALID,24.6489,VALID,336,VALID,0,
2014-07-06, 00:16:04,VALID,1009.24,VALID,0,INVALID,110.04,VALID,0,VALID,24.6294,VALID,336,VALID,0,
2014-07-06, 00:17:04,VALID,1009.2,VALID,0,INVALID,110.024,VALID,0,VALID,24.6294,VALID,336,VALID,0,
2014-07-06, 00:18:04,VALID,1009.22,VALID,0,INVALID,110.063,VALID,0,VALID,24.6294,VALID,336,VALID,0,
2014-07-06, 00:19:04,VALID,1009.23,VALID,0,INVALID,110.07,VALID,0,VALID,24.6294,VALID,336,VALID,0,
2014-07-06, 00:20:04,VALID,1009.21,VALID,0,INVALID,110.04,VALID,0,VALID,24.6294,VALID,336,VALID,0,
2014-07-06, 00:21:04,VALID,1009.2,VALID,0,INVALID,110.063,VALID,0,VALID,24.6294,VALID,336,VALID,0,
2014-07-06, 00:22:04,VALID,1009.2,VALID,0,INVALID,110.093,VALID,0,VALID,24.6489,VALID,336,VALID,0,
2014-07-06, 00:23:04,VALID,1009.17,VALID,0,INVALID,110.146,VALID,0,VALID,24.6684,VALID,336,VALID,0,
2014-07-06, 00:24:04,VALID,1009.16,VALID,0,INVALID,110.146,VALID,0,VALID,24.6684,VALID,336,VALID,0,
2014-07-06, 00:25:04,VALID,1009.12,VALID,0,INVALID,110.116,VALID,0,VALID,24.6684,VALID,336,VALID,0,
2014-07-06, 00:26:04,VALID,1009.14,VALID,0,INVALID,110.124,VALID,0,VALID,24.6684,VALID,336,VALID,0,
2014-07-06, 00:27:04,VALID,1009.12,VALID,0,INVALID,110.108,VALID,0,VALID,24.6684,VALID,336,VALID,0,
2014-07-06, 00:28:04,VALID,1009.12,VALID,0,INVALID,110.124,VALID,0,VALID,24.6703,VALID,336,VALID,0,
2014-07-06, 00:29:04,VALID,1009.1,VALID,0,INVALID,110.108,VALID,0,VALID,24.6489,VALID,336,VALID,0,
2014-07-06, 00:30:04,VALID,1009.09,VALID,0,INVALID,110.108,VALID,0,VALID,24.6703,VALID,336,VALID,0,
2014-07-06, 00:31:04,VALID,1009.13,VALID,0,INVALID,110.124,VALID,0,VALID,24.6703,VALID,336,VALID,0,
2014-07-06, 00:32:04,VALID,1009.13,VALID,0,INVALID,110.101,VALID,0,VALID,24.6489,VALID,336,VALID,0,
2014-07-06, 00:33:04,VALID,1009.15,VALID,0,INVALID,110.124,VALID,0,VALID,24.6703,VALID,336,VALID,0,
2014-07-06, 00:34:04,VALID,1009.13,VALID,0,INVALID,110.116,VALID,0,VALID,24.6294,VALID,336,VALID,0,
2014-07-06, 00:35:04,VALID,1009.14,VALID,0,INVALID,110.063,VALID,0,VALID,24.6313,VALID,336,VALID,0,
2014-07-06, 00:36:04,VALID,1009.14,VALID,0,INVALID,110.078,VALID,0,VALID,24.5905,VALID,336,VALID,0,
2014-07-06, 00:37:04,VALID,1009.09,VALID,0,INVALID,110.063,VALID,0,VALID,24.5923,VALID,336,VALID,0,
2014-07-06, 00:38:04,VALID,1009.1,VALID,0,INVALID,110.078,VALID,0,VALID,24.571,VALID,336,VALID,0,
2014-07-06, 00:39:04,VALID,1009.06,VALID,0,INVALID,110.093,VALID,0.112112,VALID,24.5496,VALID,336,VALID,0,
2014-07-06, 00:40:04,VALID,1009.07,VALID,0,INVALID,110.116,VALID,0,VALID,24.5496,VALID,336,VALID,0,
2014-07-06, 00:41:04,VALID,1009.06,VALID,0,INVALID,110.146,VALID,0.112112,VALID,24.5496,VALID,336,VALID,0,
2014-07-06, 00:42:04,VALID,1009.07,VALID,0,INVALID,110.154,VALID,0.112112,VALID,24.571,VALID,336,VALID,0,
2014-07-06, 00:43:04,VALID,1009.05,VALID,0,INVALID,110.169,VALID,0.112112,VALID,24.5496,VALID,336,VALID,0,
2014-07-06, 00:44:04,VALID,1009.06,VALID,0,INVALID,110.185,VALID,0.112112,VALID,24.5691,VALID,336,VALID,0,
2014-07-06, 00:45:04,VALID,1009.05,VALID,0,INVALID,110.238,VALID,0.112112,VALID,24.5478,VALID,336,VALID,0,
2014-07-06, 00:46:04,VALID,1009.05,VALID,0,INVALID,110.23,VALID,0.112112,VALID,24.5905,VALID,336,VALID,0,
2014-07-06, 00:47:04,VALID,1009.03,VALID,0,INVALID,110.192,VALID,0.112112,VALID,24.5496,VALID,336,VALID,0,
2014-07-06, 00:48:04,VALID,1009.01,VALID,0,INVALID,110.2,VALID,0.112112,VALID,24.5496,VALID,336,VALID,0,
2014-07-06, 00:49:04,VALID,1008.99,VALID,0,INVALID,110.223,VALID,0.112112,VALID,24.5496,VALID,336,VALID,0,
2014-07-06, 00:50:04,VALID,1008.99,VALID,0,INVALID,110.215,VALID,0.224224,VALID,24.5496,VALID,336,VALID,0,
2014-07-06, 00:51:04,VALID,1008.96,VALID,0,INVALID,110.207,VALID,0.112112,VALID,24.5496,VALID,336,VALID,0,
2014-07-06, 00:52:04,VALID,1009.04,VALID,0,INVALID,110.215,VALID,0.112112,VALID,24.5496,VALID,336,VALID,0,
2014-07-06, 00:53:04,VALID,1009.03,VALID,0,INVALID,110.238,VALID,0.112112,VALID,24.5496,VALID,336,VALID,0,
2014-07-06, 00:54:04,VALID,1009.05,VALID,0,INVALID,110.261,VALID,0,VALID,24.5515,VALID,336,VALID,0,
2014-07-06, 00:55:04,VALID,1009.07,VALID,0,INVALID,110.276,VALID,0.112112,VALID,24.5496,VALID,336,VALID,0,
2014-07-06, 00:56:04,VALID,1009.06,VALID,0,INVALID,110.268,VALID,0,VALID,24.571,VALID,336,VALID,0,
2014-07-06, 00:57:04,VALID,1009.04,VALID,0,INVALID,110.284,VALID,0,VALID,24.5728,VALID,336,VALID,0,
2014-07-06, 00:58:04,VALID,1009.03,VALID,0,INVALID,110.276,VALID,0,VALID,24.5728,VALID,336,VALID,0,
2014-07-06, 00:59:04,VALID,1008.99,VALID,0,INVALID,110.23,VALID,0,VALID,24.5515,VALID,336,VALID,0,
2014-07-06, 01:00:04,VALID,1008.98,VALID,0,INVALID,110.246,VALID,0,VALID,24.532,VALID,336,VALID,0,
2014-07-06, 01:01:04,VALID,1008.97,VALID,0,INVALID,110.23,VALID,0,VALID,24.5125,VALID,336,VALID,0,
2014-07-06, 01:02:04,VALID,1008.96,VALID,0,INVALID,110.215,VALID,0,VALID,24.5338,VALID,336,VALID,0,
2014-07-06, 01:03:04,VALID,1008.96,VALID,0,INVALID,110.2,VALID,0,VALID,24.5125,VALID,336,VALID,0,
2014-07-06, 01:04:04,VALID,1008.98,VALID,0,INVALID,110.253,VALID,0,VALID,24.5125,VALID,336,VALID,0,
2014-07-06, 01:05:04,VALID,1008.99,VALID,0,INVALID,110.253,VALID,0,VALID,24.5125,VALID,336,VALID,0,
2014-07-06, 01:06:04,VALID,1009.02,VALID,0,INVALID,110.261,VALID,0,VALID,24.5125,VALID,336,VALID,0,
2014-07-06, 01:07:04,VALID,1009.01,VALID,0,INVALID,110.284,VALID,0,VALID,24.5125,VALID,336,VALID,0,
2014-07-06, 01:08:04,VALID,1009.03,VALID,0,INVALID,110.261,VALID,0,VALID,24.5125,VALID,336,VALID,0,
2014-07-06, 01:09:04,VALID,1009.01,VALID,0,INVALID,110.276,VALID,0.112112,VALID,24.5106,VALID,336,VALID,0,
2014-07-06, 01:10:04,VALID,1009,VALID,0,INVALID,110.307,VALID,0.112112,VALID,24.5301,VALID,336,VALID,0,
2014-07-06, 01:11:04,VALID,1008.98,VALID,0,INVALID,110.284,VALID,0.112112,VALID,24.5106,VALID,336,VALID,0,
2014-07-06, 01:12:04,VALID,1008.97,VALID,0,INVALID,110.276,VALID,0.112112,VALID,24.5301,VALID,336,VALID,0,
2014-07-06, 01:13:04,VALID,1008.91,VALID,0,INVALID,110.299,VALID,0.112112,VALID,24.5106,VALID,336,VALID,0,
2014-07-06, 01:14:04,VALID,1008.9,VALID,0,INVALID,110.307,VALID,0.112112,VALID,24.5301,VALID,336,VALID,0,
2014-07-06, 01:15:04,VALID,1008.89,VALID,0,INVALID,110.307,VALID,0.112112,VALID,24.5106,VALID,336,VALID,0,
2014-07-06, 01:16:04,VALID,1008.9,VALID,0,INVALID,110.314,VALID,0.112112,VALID,24.4911,VALID,336,VALID,0,
2014-07-06, 01:17:04,VALID,1008.92,VALID,0,INVALID,110.299,VALID,0.112112,VALID,24.493,VALID,336,VALID,0,
2014-07-06, 01:18:04,VALID,1008.95,VALID,0,INVALID,110.314,VALID,0,VALID,24.4717,VALID,336,VALID,0,
2014-07-06, 01:19:04,VALID,1008.95,VALID,0,INVALID,110.314,VALID,0,VALID,24.4717,VALID,336,VALID,0,
2014-07-06, 01:20:04,VALID,1008.91,VALID,0,INVALID,110.291,VALID,0.112112,VALID,24.4717,VALID,336,VALID,0,
2014-07-06, 01:21:04,VALID,1008.91,VALID,0,INVALID,110.307,VALID,0.112112,VALID,24.4735,VALID,336,VALID,0,
2014-07-06, 01:22:04,VALID,1008.88,VALID,0,INVALID,110.329,VALID,0.112112,VALID,24.4698,VALID,336,VALID,0,
2014-07-06, 01:23:04,VALID,1008.83,VALID,0,INVALID,110.337,VALID,0.112112,VALID,24.4717,VALID,336,VALID,0,
2014-07-06, 01:24:04,VALID,1008.8,VALID,0,INVALID,110.337,VALID,0,VALID,24.4735,VALID,336,VALID,0,
2014-07-06, 01:25:04,VALID,1008.78,VALID,0,INVALID,110.36,VALID,0,VALID,24.454,VALID,336,VALID,0,
2014-07-06, 01:26:04,VALID,1008.76,VALID,0,INVALID,110.337,VALID,0,VALID,24.4735,VALID,336,VALID,0,
2014-07-06, 01:27:04,VALID,1008.74,VALID,0,INVALID,110.322,VALID,0,VALID,24.4345,VALID,336,VALID,0,
2014-07-06, 01:28:04,VALID,1008.74,VALID,0,INVALID,110.291,VALID,0,VALID,24.4345,VALID,336,VALID,0,
2014-07-06, 01:29:04,VALID,1008.73,VALID,0,INVALID,110.322,VALID,0,VALID,24.4345,VALID,336,VALID,0,
2014-07-06, 01:30:04,VALID,1008.71,VALID,0,INVALID,110.307,VALID,0,VALID,24.415,VALID,336,VALID,0,
2014-07-06, 01:31:04,VALID,1008.67,VALID,0,INVALID,110.329,VALID,0,VALID,24.415,VALID,336,VALID,0,
2014-07-06, 01:32:04,VALID,1008.67,VALID,0,INVALID,110.307,VALID,0,VALID,24.415,VALID,336,VALID,0,
2014-07-06, 01:33:04,VALID,1008.65,VALID,0,INVALID,110.345,VALID,0,VALID,24.4345,VALID,336,VALID,0,
2014-07-06, 01:34:04,VALID,1008.61,VALID,0,INVALID,110.406,VALID,0,VALID,24.4735,VALID,336,VALID,0,
2014-07-06, 01:35:04,VALID,1008.61,VALID,0,INVALID,110.375,VALID,0.112112,VALID,24.4327,VALID,336,VALID,0,
2014-07-06, 01:36:04,VALID,1008.6,VALID,0,INVALID,110.375,VALID,0,VALID,24.454,VALID,336,VALID,0,
2014-07-06, 01:37:04,VALID,1008.59,VALID,0,INVALID,110.375,VALID,0,VALID,24.4559,VALID,336,VALID,0,
2014-07-06, 01:38:04,VALID,1008.59,VALID,0,INVALID,110.383,VALID,0,VALID,24.415,VALID,336,VALID,0,
2014-07-06, 01:39:04,VALID,1008.58,VALID,0,INVALID,110.322,VALID,0,VALID,24.3956,VALID,336,VALID,0,
2014-07-06, 01:40:04,VALID,1008.58,VALID,0,INVALID,110.329,VALID,0,VALID,24.3761,VALID,336,VALID,0,
2014-07-06, 01:41:04,VALID,1008.61,VALID,0,INVALID,110.284,VALID,0,VALID,24.3566,VALID,336,VALID,0,
2014-07-06, 01:42:04,VALID,1008.56,VALID,0,INVALID,110.291,VALID,0,VALID,24.3371,VALID,336,VALID,0,
2014-07-06, 01:43:04,VALID,1008.57,VALID,0,INVALID,110.299,VALID,0,VALID,24.2981,VALID,336,VALID,0,
2014-07-06, 01:44:04,VALID,1008.59,VALID,0,INVALID,110.345,VALID,0,VALID,24.3176,VALID,336,VALID,0,
2014-07-06, 01:45:04,VALID,1008.57,VALID,0,INVALID,110.352,VALID,0,VALID,24.3176,VALID,336,VALID,0,
2014-07-06, 01:46:04,VALID,1008.56,VALID,0,INVALID,110.36,VALID,0,VALID,24.2786,VALID,336,VALID,0,
2014-07-06, 01:47:04,VALID,1008.58,VALID,0,INVALID,110.383,VALID,0,VALID,24.2786,VALID,336,VALID,0,
2014-07-06, 01:48:04,VALID,1008.57,VALID,0,INVALID,110.36,VALID,0,VALID,24.2591,VALID,336,VALID,0,
2014-07-06, 01:49:04,VALID,1008.56,VALID,0,INVALID,110.383,VALID,0,VALID,24.2591,VALID,336,VALID,0,
2014-07-06, 01:50:04,VALID,1008.55,VALID,0,INVALID,110.413,VALID,0,VALID,24.2591,VALID,336,VALID,0,
2014-07-06, 01:51:04,VALID,1008.55,VALID,0,INVALID,110.383,VALID,0,VALID,24.2396,VALID,336,VALID,0,
2014-07-06, 01:52:04,VALID,1008.56,VALID,0,INVALID,110.398,VALID,0,VALID,24.2396,VALID,336,VALID,0,
2014-07-06, 01:53:04,VALID,1008.53,VALID,0,INVALID,110.444,VALID,0,VALID,24.2415,VALID,336,VALID,0,
2014-07-06, 01:54:04,VALID,1008.52,VALID,0,INVALID,110.429,VALID,0.112112,VALID,24.1988,VALID,336,VALID,0,
2014-07-06, 01:55:04,VALID,1008.52,VALID,0,INVALID,110.467,VALID,0,VALID,24.2202,VALID,336,VALID,0,
2014-07-06, 01:56:04,VALID,1008.5,VALID,0,INVALID,110.459,VALID,0,VALID,24.2202,VALID,336,VALID,0,
2014-07-06, 01:57:04,VALID,1008.5,VALID,0,INVALID,110.436,VALID,0,VALID,24.2202,VALID,336,VALID,0,
2014-07-06, 01:58:04,VALID,1008.49,VALID,0,INVALID,110.474,VALID,0,VALID,24.2007,VALID,336,VALID,0,
2014-07-06, 01:59:04,VALID,1008.47,VALID,0,INVALID,110.467,VALID,0.112112,VALID,24.2007,VALID,336,VALID,0,
2014-07-06, 02:00:04,VALID,1008.46,VALID,0,INVALID,110.482,VALID,0,VALID,24.1812,VALID,336,VALID,0,
2014-07-06, 02:01:04,VALID,1008.45,VALID,0,INVALID,110.467,VALID,0,VALID,24.1812,VALID,336,VALID,0,
2014-07-06, 02:02:04,VALID,1008.49,VALID,0,INVALID,110.505,VALID,0.112112,VALID,24.1599,VALID,336,VALID,0,
2014-07-06, 02:03:04,VALID,1008.52,VALID,0,INVALID,110.474,VALID,0,VALID,24.2007,VALID,336,VALID,0,
2014-07-06, 02:04:04,VALID,1008.55,VALID,0,INVALID,110.474,VALID,0,VALID,24.1812,VALID,336,VALID,0,
2014-07-06, 02:05:04,VALID,1008.6,VALID,0,INVALID,110.505,VALID,0,VALID,24.2007,VALID,336,VALID,0,
2014-07-06, 02:06:04,VALID,1008.63,VALID,0,INVALID,110.474,VALID,0,VALID,24.2007,VALID,336,VALID,0,
2014-07-06, 02:07:04,VALID,1008.64,VALID,0,INVALID,110.512,VALID,0.112112,VALID,24.2202,VALID,336,VALID,0,
2014-07-06, 02:08:04,VALID,1008.65,VALID,0,INVALID,110.505,VALID,0,VALID,24.2202,VALID,336,VALID,0,
2014-07-06, 02:09:04,VALID,1008.65,VALID,0,INVALID,110.528,VALID,0.112112,VALID,24.2396,VALID,336,VALID,0,
2014-07-06, 02:10:04,VALID,1008.62,VALID,0,INVALID,110.512,VALID,0.112112,VALID,24.2183,VALID,336,VALID,0,
2014-07-06, 02:11:04,VALID,1008.58,VALID,0,INVALID,110.543,VALID,0,VALID,24.2591,VALID,336,VALID,0,
2014-07-06, 02:12:04,VALID,1008.53,VALID,0,INVALID,110.52,VALID,0,VALID,24.2396,VALID,336,VALID,0,
2014-07-06, 02:13:04,VALID,1008.5,VALID,0,INVALID,110.535,VALID,0,VALID,24.2396,VALID,336,VALID,0,
2014-07-06, 02:14:04,VALID,1008.47,VALID,0,INVALID,110.52,VALID,0.112112,VALID,24.2591,VALID,336,VALID,0,
2014-07-06, 02:15:04,VALID,1008.44,VALID,0,INVALID,110.505,VALID,0,VALID,24.2396,VALID,336,VALID,0,
2014-07-06, 02:16:04,VALID,1008.47,VALID,0,INVALID,110.535,VALID,0.112112,VALID,24.2591,VALID,336,VALID,0,
2014-07-06, 02:17:04,VALID,1008.47,VALID,0,INVALID,110.52,VALID,0,VALID,24.2591,VALID,336,VALID,0,
2014-07-06, 02:18:04,VALID,1008.49,VALID,0,INVALID,110.535,VALID,0,VALID,24.2786,VALID,336,VALID,0,
2014-07-06, 02:19:04,VALID,1008.51,VALID,0,INVALID,110.52,VALID,0.112112,VALID,24.2981,VALID,336,VALID,0,
2014-07-06, 02:20:04,VALID,1008.54,VALID,0,INVALID,110.512,VALID,0.112112,VALID,24.3371,VALID,336,VALID,0,
2014-07-06, 02:21:04,VALID,1008.51,VALID,0,INVALID,110.52,VALID,0,VALID,24.3566,VALID,336,VALID,0,
2014-07-06, 02:22:04,VALID,1008.5,VALID,0,INVALID,110.512,VALID,0,VALID,24.3566,VALID,336,VALID,0,
2014-07-06, 02:23:04,VALID,1008.51,VALID,0,INVALID,110.52,VALID,0,VALID,24.3547,VALID,336,VALID,0,
2014-07-06, 02:24:04,VALID,1008.46,VALID,0,INVALID,110.551,VALID,0,VALID,24.3974,VALID,336,VALID,0,
2014-07-06, 02:25:04,VALID,1008.46,VALID,0,INVALID,110.528,VALID,0,VALID,24.4169,VALID,336,VALID,0,
2014-07-06, 02:26:04,VALID,1008.42,VALID,0,INVALID,110.535,VALID,0,VALID,24.415,VALID,336,VALID,0,
2014-07-06, 02:27:04,VALID,1008.42,VALID,0,INVALID,110.535,VALID,0,VALID,24.3956,VALID,336,VALID,0,
2014-07-06, 02:28:04,VALID,1008.41,VALID,0,INVALID,110.573,VALID,0.112112,VALID,24.3956,VALID,336,VALID,0,
2014-07-06, 02:29:04,VALID,1008.4,VALID,0,INVALID,110.581,VALID,0,VALID,24.3761,VALID,336,VALID,0,
2014-07-06, 02:30:04,VALID,1008.4,VALID,0,INVALID,110.573,VALID,0,VALID,24.3566,VALID,336,VALID,0,
2014-07-06, 02:31:04,VALID,1008.41,VALID,0,INVALID,110.543,VALID,0,VALID,24.3371,VALID,336,VALID,0,
2014-07-06, 02:32:04,VALID,1008.41,VALID,0,INVALID,110.543,VALID,0,VALID,24.3371,VALID,336,VALID,0,
2014-07-06, 02:33:04,VALID,1008.4,VALID,0,INVALID,110.512,VALID,0,VALID,24.3584,VALID,336,VALID,0,
2014-07-06, 02:34:04,VALID,1008.41,VALID,0,INVALID,110.528,VALID,0,VALID,24.3371,VALID,336,VALID,0,
2014-07-06, 02:35:04,VALID,1008.41,VALID,0,INVALID,110.543,VALID,0,VALID,24.3389,VALID,336,VALID,0,
2014-07-06, 02:36:04,VALID,1008.41,VALID,0,INVALID,110.551,VALID,0,VALID,24.2981,VALID,336,VALID,0,
2014-07-06, 02:37:04,VALID,1008.4,VALID,0,INVALID,110.558,VALID,0,VALID,24.2981,VALID,336,VALID,0,
2014-07-06, 02:38:04,VALID,1008.41,VALID,0,INVALID,110.52,VALID,0,VALID,24.2981,VALID,336,VALID,0,
2014-07-06, 02:39:04,VALID,1008.4,VALID,0,INVALID,110.52,VALID,0,VALID,24.2786,VALID,336,VALID,0,
2014-07-06, 02:40:04,VALID,1008.39,VALID,0,INVALID,110.566,VALID,0,VALID,24.2805,VALID,336,VALID,0,
2014-07-06, 02:41:04,VALID,1008.38,VALID,0,INVALID,110.535,VALID,0,VALID,24.2786,VALID,336,VALID,0,
2014-07-06, 02:42:04,VALID,1008.38,VALID,0,INVALID,110.535,VALID,0.112112,VALID,24.3194,VALID,336,VALID,0,
2014-07-06, 02:43:04,VALID,1008.37,VALID,0,INVALID,110.543,VALID,0,VALID,24.2981,VALID,336,VALID,0,
2014-07-06, 02:44:04,VALID,1008.35,VALID,0,INVALID,110.558,VALID,0,VALID,24.3,VALID,336,VALID,0,
2014-07-06, 02:45:04,VALID,1008.37,VALID,0,INVALID,110.535,VALID,0,VALID,24.3194,VALID,336,VALID,0,
2014-07-06, 02:46:04,VALID,1008.36,VALID,0,INVALID,110.566,VALID,0,VALID,24.2981,VALID,336,VALID,0,
2014-07-06, 02:47:04,VALID,1008.39,VALID,0,INVALID,110.604,VALID,0,VALID,24.2786,VALID,336,VALID,0,
2014-07-06, 02:48:04,VALID,1008.4,VALID,0,INVALID,110.573,VALID,0,VALID,24.2573,VALID,336,VALID,0,
2014-07-06, 02:49:04,VALID,1008.38,VALID,0,INVALID,110.566,VALID,0.112112,VALID,24.2573,VALID,336,VALID,0,
2014-07-06, 02:50:04,VALID,1008.36,VALID,0,INVALID,110.573,VALID,0.112112,VALID,24.2591,VALID,336,VALID,0,
2014-07-06, 02:51:04,VALID,1008.35,VALID,0,INVALID,110.573,VALID,0,VALID,24.2396,VALID,336,VALID,0,
2014-07-06, 02:52:04,VALID,1008.35,VALID,0,INVALID,110.551,VALID,0.112112,VALID,24.2591,VALID,336,VALID,0,
2014-07-06, 02:53:04,VALID,1008.35,VALID,0,INVALID,110.535,VALID,0,VALID,24.2786,VALID,336,VALID,0,
2014-07-06, 02:54:04,VALID,1008.37,VALID,0,INVALID,110.528,VALID,0,VALID,24.2786,VALID,336,VALID,0,
2014-07-06, 02:55:04,VALID,1008.35,VALID,0,INVALID,110.566,VALID,0,VALID,24.2591,VALID,336,VALID,0,
2014-07-06, 02:56:04,VALID,1008.36,VALID,0,INVALID,110.558,VALID,0,VALID,24.2786,VALID,336,VALID,0,
2014-07-06, 02:57:04,VALID,1008.35,VALID,0,INVALID,110.566,VALID,0,VALID,24.2591,VALID,336,VALID,0,
2014-07-06, 02:58:04,VALID,1008.39,VALID,0,INVALID,110.566,VALID,0,VALID,24.2591,VALID,336,VALID,0,
2014-07-06, 02:59:04,VALID,1008.41,VALID,0,INVALID,110.596,VALID,0,VALID,24.2591,VALID,336,VALID,0,
2014-07-06, 03:00:04,VALID,1008.43,VALID,0,INVALID,110.573,VALID,0.112112,VALID,24.2396,VALID,336,VALID,0,
2014-07-06, 03:01:04,VALID,1008.46,VALID,0,INVALID,110.589,VALID,0,VALID,24.2396,VALID,336,VALID,0,
2014-07-06, 03:02:04,VALID,1008.51,VALID,0,INVALID,110.604,VALID,0,VALID,24.2007,VALID,336,VALID,0,
2014-07-06, 03:03:04,VALID,1008.54,VALID,0,INVALID,110.634,VALID,0,VALID,24.222,VALID,336,VALID,0,
2014-07-06, 03:04:04,VALID,1008.57,VALID,0,INVALID,110.604,VALID,0,VALID,24.2007,VALID,336,VALID,0,
2014-07-06, 03:05:04,VALID,1008.62,VALID,0,INVALID,110.604,VALID,0.112112,VALID,24.2007,VALID,336,VALID,0,
2014-07-06, 03:06:04,VALID,1008.62,VALID,0,INVALID,110.596,VALID,0,VALID,24.2007,VALID,336,VALID,0,
2014-07-06, 03:07:04,VALID,1008.61,VALID,0,INVALID,110.573,VALID,0,VALID,24.2007,VALID,336,VALID,0,
2014-07-06, 03:08:04,VALID,1008.66,VALID,0,INVALID,110.604,VALID,0,VALID,24.2007,VALID,336,VALID,0,
2014-07-06, 03:09:04,VALID,1008.59,VALID,0,INVALID,110.581,VALID,0,VALID,24.2007,VALID,336,VALID,0,
2014-07-06, 03:10:04,VALID,1008.6,VALID,0,INVALID,110.619,VALID,0,VALID,24.2007,VALID,336,VALID,0,
2014-07-06, 03:11:04,VALID,1008.62,VALID,0,INVALID,110.619,VALID,0,VALID,24.2025,VALID,336,VALID,0,
2014-07-06, 03:12:04,VALID,1008.6,VALID,0,INVALID,110.604,VALID,0,VALID,24.2007,VALID,336,VALID,0,
2014-07-06, 03:13:04,VALID,1008.6,VALID,0,INVALID,110.612,VALID,0,VALID,24.1812,VALID,336,VALID,0,
2014-07-06, 03:14:04,VALID,1008.61,VALID,0,INVALID,110.612,VALID,0,VALID,24.1812,VALID,336,VALID,0,
2014-07-06, 03:15:04,VALID,1008.61,VALID,0,INVALID,110.589,VALID,0.112112,VALID,24.1812,VALID,336,VALID,0,
2014-07-06, 03:16:04,VALID,1008.67,VALID,0,INVALID,110.612,VALID,0,VALID,24.1617,VALID,336,VALID,0,
2014-07-06, 03:17:04,VALID,1008.65,VALID,0,INVALID,110.657,VALID,0,VALID,24.1617,VALID,336,VALID,0,
2014-07-06, 03:18:04,VALID,1008.66,VALID,0,INVALID,110.627,VALID,0,VALID,24.1812,VALID,336,VALID,0,
2014-07-06, 03:19:04,VALID,1008.68,VALID,0,INVALID,110.627,VALID,0,VALID,24.1812,VALID,336,VALID,0,
2014-07-06, 03:20:04,VALID,1008.68,VALID,0,INVALID,110.604,VALID,0.112112,VALID,24.1812,VALID,336,VALID,0,
2014-07-06, 03:21:04,VALID,1008.71,VALID,0,INVALID,110.627,VALID,0,VALID,24.2025,VALID,336,VALID,0,
2014-07-06, 03:22:04,VALID,1008.74,VALID,0,INVALID,110.634,VALID,0,VALID,24.1617,VALID,336,VALID,0,
2014-07-06, 03:23:04,VALID,1008.75,VALID,0,INVALID,110.596,VALID,0,VALID,24.1617,VALID,336,VALID,0,
2014-07-06, 03:24:04,VALID,1008.76,VALID,0,INVALID,110.619,VALID,0,VALID,24.183,VALID,336,VALID,0,
2014-07-06, 03:25:04,VALID,1008.78,VALID,0,INVALID,110.604,VALID,0,VALID,24.1617,VALID,336,VALID,0,
2014-07-06, 03:26:04,VALID,1008.76,VALID,0,INVALID,110.619,VALID,0,VALID,24.183,VALID,336,VALID,0,
2014-07-06, 03:27:04,VALID,1008.75,VALID,0,INVALID,110.619,VALID,0,VALID,24.1617,VALID,336,VALID,0,
2014-07-06, 03:28:04,VALID,1008.75,VALID,0,INVALID,110.604,VALID,0.112112,VALID,24.1617,VALID,336,VALID,0,
2014-07-06, 03:29:04,VALID,1008.76,VALID,0,INVALID,110.634,VALID,0,VALID,24.1617,VALID,336,VALID,0,
2014-07-06, 03:30:04,VALID,1008.74,VALID,0,INVALID,110.612,VALID,0,VALID,24.1812,VALID,336,VALID,0,
2014-07-06, 03:31:04,VALID,1008.68,VALID,0,INVALID,110.596,VALID,0,VALID,24.1812,VALID,336,VALID,0,
2014-07-06, 03:32:04,VALID,1008.66,VALID,0,INVALID,110.612,VALID,0,VALID,24.1617,VALID,336,VALID,0,
2014-07-06, 03:33:04,VALID,1008.64,VALID,0,INVALID,110.634,VALID,0,VALID,24.1812,VALID,336,VALID,0,
2014-07-06, 03:34:04,VALID,1008.58,VALID,0,INVALID,110.634,VALID,0,VALID,24.1812,VALID,336,VALID,0,
2014-07-06, 03:35:04,VALID,1008.55,VALID,0,INVALID,110.612,VALID,0,VALID,24.1812,VALID,336,VALID,0,
2014-07-06, 03:36:04,VALID,1008.53,VALID,0,INVALID,110.596,VALID,0,VALID,24.1812,VALID,336,VALID,0,
2014-07-06, 03:37:05,VALID,1008.5,VALID,0,INVALID,110.612,VALID,0.112112,VALID,24.1812,VALID,336,VALID,0,
2014-07-06, 03:38:05,VALID,1008.5,VALID,0,INVALID,110.604,VALID,0,VALID,24.1812,VALID,336,VALID,0,
2014-07-06, 03:39:04,VALID,1008.48,VALID,0,INVALID,110.581,VALID,0,VALID,24.1617,VALID,336,VALID,0,
2014-07-06, 03:40:05,VALID,1008.48,VALID,0,INVALID,110.596,VALID,0,VALID,24.1812,VALID,336,VALID,0,
2014-07-06, 03:41:05,VALID,1008.46,VALID,0,INVALID,110.604,VALID,0,VALID,24.1812,VALID,336,VALID,0,
2014-07-06, 03:42:05,VALID,1008.44,VALID,0,INVALID,110.604,VALID,0,VALID,24.2007,VALID,336,VALID,0,
2014-07-06, 03:43:05,VALID,1008.48,VALID,0,INVALID,110.65,VALID,0,VALID,24.2007,VALID,336,VALID,0,
2014-07-06, 03:44:05,VALID,1008.47,VALID,0,INVALID,110.634,VALID,0,VALID,24.2007,VALID,336,VALID,0,
2014-07-06, 03:45:05,VALID,1008.46,VALID,0,INVALID,110.604,VALID,0,VALID,24.2007,VALID,336,VALID,0,
2014-07-06, 03:46:05,VALID,1008.48,VALID,0,INVALID,110.634,VALID,0,VALID,24.1812,VALID,336,VALID,0,
2014-07-06, 03:47:05,VALID,1008.5,VALID,0,INVALID,110.589,VALID,0,VALID,24.1812,VALID,336,VALID,0,
2014-07-06, 03:48:05,VALID,1008.49,VALID,0,INVALID,110.619,VALID,0,VALID,24.1617,VALID,336,VALID,0,
2014-07-06, 03:49:05,VALID,1008.49,VALID,0,INVALID,110.627,VALID,0,VALID,24.1812,VALID,336,VALID,0,
2014-07-06, 03:50:05,VALID,1008.5,VALID,0,INVALID,110.619,VALID,0,VALID,24.1617,VALID,336,VALID,0,
2014-07-06, 03:51:05,VALID,1008.48,VALID,0,INVALID,110.634,VALID,0,VALID,24.1617,VALID,336,VALID,0,